Date String (YYYY-MM-DD hh:mm:ss) UTC,Instrument flags,Ambient pressure (hPa),Sample flow (lpm),Bypass flow (lpm),Sample temperature (°C),Ambient temperature (°C),ASC tube jacket temperature (°C),LED temperature (°C),Box temperature (°C),Sample RH (%),Span deviation,Mass concentration (μg/m³),Mass concentration (μg/m³),Mass concentration (μg/m³)
DateTimeUTC,F1_M11,P_M11,Q1_M11,Q2_M11,T1_M11,T2_M11,T3_M11,T4_M11,T5_M11,U1_M11,ZSPAN_M11,X0_M11,X2_M11,X1_M11
2022-07-09 19:00:00,,0832.6,4.99,0.00,29.1,27.8,00.0,37.7,31.1,14.5,0000.0,0008.26,0003.27,0002.56
2022-07-09 19:01:00,,0832.6,5.00,0.00,29.2,27.7,00.0,37.7,31.1,13.6,0000.0,0008.23,0003.23,0002.55
2022-07-09 19:02:00,,0832.6,5.00,0.00,29.1,27.1,00.0,37.7,31.0,13.1,0000.0,0007.78,0003.22,0002.53
2022-07-09 19:03:00,,0832.6,5.00,0.00,29.1,27.0,00.0,37.7,30.9,14.5,0000.0,0006.71,0003.20,0002.52
2022-07-09 19:04:00,,0832.5,5.00,0.00,29.1,27.0,00.0,37.7,30.9,14.8,0000.0,0006.26,0003.19,0002.53
2022-07-09 19:05:00,,0832.5,4.99,0.00,29.0,27.2,00.0,37.7,30.9,14.7,0000.0,0007.19,0003.21,0002.54
2022-07-09 19:06:00,,0832.5,5.00,0.00,29.1,27.4,00.0,37.7,30.9,15.0,0000.0,0007.08,0003.22,0002.57
2022-07-09 19:07:00,,0832.4,5.01,0.00,29.1,27.6,00.0,37.7,31.0,15.1,0000.0,0007.05,0003.22,0002.59
2022-07-09 19:08:00,,0832.5,5.01,0.00,29.1,27.8,00.0,37.7,31.0,14.8,0000.0,0007.07,0003.23,0002.60
2022-07-09 19:09:00,,0832.5,4.99,0.00,29.2,27.9,00.0,37.7,31.1,14.6,0000.0,0007.10,0003.24,0002.61
2022-07-09 19:10:00,,0832.4,5.01,0.00,29.2,27.5,00.0,37.7,31.1,14.4,0000.0,0007.24,0003.26,0002.62
2022-07-09 19:11:00,,0832.4,4.99,0.00,29.1,27.0,00.0,37.7,31.0,13.9,0000.0,0006.97,0003.24,0002.62
2022-07-09 19:12:00,,0832.4,5.01,0.00,29.1,27.0,00.0,37.7,31.0,14.2,0000.0,0007.20,0003.27,0002.64
2022-07-09 19:13:00,,0832.4,5.00,0.00,29.1,27.2,00.0,37.7,30.9,13.8,0000.0,0007.52,0003.28,0002.66
2022-07-09 19:14:00,,0832.3,5.00,0.00,29.1,27.3,00.0,37.7,30.9,14.2,0000.0,0007.55,0003.30,0002.69
2022-07-09 19:15:00,,0832.2,4.99,0.00,29.1,27.6,00.0,37.7,31.0,14.5,0000.0,0007.26,0003.30,0002.69
2022-07-09 19:16:00,,0832.3,5.00,0.00,29.1,27.8,00.0,37.8,31.0,14.2,0000.0,0006.51,0003.28,0002.67
2022-07-09 19:17:00,,0832.2,5.00,0.00,29.2,27.9,00.0,37.8,31.1,13.7,0000.0,0006.77,0003.31,0002.66
2022-07-09 19:18:00,,0832.2,5.01,0.00,29.2,27.4,00.0,37.7,31.1,13.8,0000.0,0006.83,0003.34,0002.65
2022-07-09 19:19:00,,0832.2,5.00,0.00,29.1,27.0,00.0,37.7,31.0,13.4,0000.0,0007.90,0003.33,0002.65
2022-07-09 19:20:00,,0832.3,4.99,0.00,29.1,27.0,00.0,37.7,30.9,13.4,0000.0,0008.49,0003.32,0002.64
2022-07-09 19:21:00,,0832.2,4.99,0.00,29.1,27.1,00.0,37.7,30.9,14.1,0000.0,0008.39,0003.30,0002.63
2022-07-09 19:22:00,,0832.2,5.01,0.00,29.1,27.3,00.0,37.7,30.9,15.0,0000.0,0009.59,0003.34,0002.64
2022-07-09 19:23:00,,0832.2,5.01,0.00,29.1,27.5,00.0,37.7,31.0,15.2,0000.0,0010.10,0003.34,0002.66
2022-07-09 19:24:00,,0832.3,5.00,0.00,29.1,27.7,00.0,37.8,31.0,14.9,0000.0,0010.15,0003.34,0002.68
2022-07-09 19:25:00,,0832.2,5.00,0.00,29.2,27.8,00.0,37.8,31.1,14.6,0000.0,0010.26,0003.35,0002.68
2022-07-09 19:26:00,,0832.1,5.00,0.00,29.2,27.4,00.0,37.7,31.1,14.3,0000.0,0010.32,0003.36,0002.69
2022-07-09 19:27:00,,0832.2,5.01,0.00,29.1,27.0,00.0,37.7,31.0,14.7,0000.0,0010.40,0003.36,0002.70
2022-07-09 19:28:00,,0832.2,5.00,0.00,29.1,27.0,00.0,37.7,30.9,14.6,0000.0,0010.44,0003.37,0002.70
2022-07-09 19:29:00,,0832.3,4.99,0.00,29.1,27.1,00.0,37.7,30.9,14.6,0000.0,0010.53,0003.34,0002.70
2022-07-09 19:30:00,,0832.2,5.00,0.00,29.1,27.3,00.0,37.7,30.9,14.6,0000.0,0010.20,0003.37,0002.72
2022-07-09 19:31:00,,0832.3,5.00,0.00,29.1,27.5,00.0,37.7,30.9,14.4,0000.0,0009.77,0003.41,0002.73
2022-07-09 19:32:00,,0832.2,5.00,0.00,29.1,27.7,00.0,37.8,31.0,14.7,0000.0,0009.84,0003.43,0002.74
2022-07-09 19:33:00,,0832.2,5.00,0.00,29.1,27.6,00.0,37.7,31.1,14.9,0000.0,0008.71,0003.41,0002.76
2022-07-09 19:34:00,,0832.2,5.00,0.00,29.1,27.1,00.0,37.7,30.9,14.6,0000.0,0007.92,0003.42,0002.74
2022-07-09 19:35:00,,0832.1,5.00,0.00,29.1,26.9,00.0,37.7,30.9,14.7,0000.0,0007.60,0003.41,0002.72
2022-07-09 19:36:00,,0832.2,4.99,0.00,29.0,27.0,00.0,37.7,30.8,14.7,0000.0,0007.76,0003.40,0002.71
2022-07-09 19:37:00,,0832.2,5.00,0.00,29.0,27.2,00.0,37.7,30.8,14.4,0000.0,0007.83,0003.43,0002.70
2022-07-09 19:38:00,,0832.2,4.99,0.00,29.0,27.4,00.0,37.7,30.9,14.3,0000.0,0007.75,0003.44,0002.69
2022-07-09 19:39:00,,0832.2,5.00,0.00,29.0,27.6,00.0,37.7,30.9,14.3,0000.0,0007.61,0003.40,0002.68
2022-07-09 19:40:00,,0832.2,5.00,0.00,29.1,27.8,00.0,37.7,31.0,14.4,0000.0,0007.98,0003.42,0002.67
2022-07-09 19:41:00,,0832.1,5.00,0.00,29.1,27.6,00.0,37.7,31.1,15.0,0000.0,0007.67,0003.41,0002.64
2022-07-09 19:42:00,,0832.2,5.00,0.00,29.1,27.1,00.0,37.7,30.9,14.7,0000.0,0007.99,0003.38,0002.63
2022-07-09 19:43:00,,0832.2,5.00,0.00,29.0,26.9,00.0,37.7,30.9,14.5,0000.0,0008.10,0003.38,0002.62
2022-07-09 19:44:00,,0832.1,5.01,0.00,29.0,27.0,00.0,37.7,30.8,14.6,0000.0,0008.37,0003.39,0002.60
2022-07-09 19:45:00,,0832.2,5.00,0.00,29.0,27.2,00.0,37.7,30.8,14.1,0000.0,0008.79,0003.38,0002.58
2022-07-09 19:46:00,,0832.2,4.99,0.00,29.0,27.4,00.0,37.7,30.9,14.3,0000.0,0008.70,0003.36,0002.57
2022-07-09 19:47:00,,0832.2,5.00,0.00,29.1,27.6,00.0,37.7,31.0,14.5,0000.0,0008.51,0003.36,0002.56
2022-07-09 19:48:00,,0832.1,5.00,0.00,29.1,27.8,00.0,37.7,31.0,14.6,0000.0,0009.41,0003.35,0002.56
2022-07-09 19:49:00,,0832.1,5.01,0.00,29.1,27.7,00.0,37.7,31.1,14.2,0000.0,0010.06,0003.34,0002.55
2022-07-09 19:50:00,,0832.1,5.00,0.00,29.1,27.0,00.0,37.7,30.9,14.2,0000.0,0010.19,0003.38,0002.56
2022-07-09 19:51:00,,0832.1,4.99,0.00,29.0,26.9,00.0,37.6,30.9,14.4,0000.0,0009.87,0003.40,0002.56
2022-07-09 19:52:00,,0832.1,5.00,0.00,29.0,27.0,00.0,37.7,30.9,14.7,0000.0,0009.86,0003.39,0002.55
2022-07-09 19:53:00,,0832.1,4.98,0.00,29.0,27.2,00.0,37.7,30.8,14.9,0000.0,0009.37,0003.40,0002.54
2022-07-09 19:54:00,,0832.1,5.00,0.00,29.0,27.4,00.0,37.7,30.9,14.6,0000.0,0009.24,0003.43,0002.53
2022-07-09 19:55:00,,0832.0,5.01,0.00,29.1,27.6,00.0,37.7,30.9,14.5,0000.0,0009.10,0003.42,0002.53
2022-07-09 19:56:00,,0832.1,5.00,0.00,29.1,27.8,00.0,37.7,31.0,14.2,0000.0,0008.71,0003.41,0002.55
2022-07-09 19:57:00,,0832.0,5.00,0.00,29.1,27.6,00.0,37.7,31.1,14.2,0000.0,0008.73,0003.45,0002.56
2022-07-09 19:58:00,,0832.0,5.00,0.00,29.1,27.0,00.0,37.7,30.9,14.3,0000.0,0008.79,0003.48,0002.57
2022-07-09 19:59:00,,0832.0,5.00,0.00,29.0,26.9,00.0,37.6,30.9,14.4,0000.0,0008.26,0003.46,0002.57
